Home > Weather > Prescott > Past weeks

Flag for USA Past Weather in Prescott, Arizona, USA — Yesterday and Last 2 Weeks

Now
74 °F

Sunny.


Feels Like: 77 °F
Forecast: 69 / 90 °F
Wind: 6 mph from Southwest

Location: Love Field

Current Time: Jun 28, 2016 at 8:17:16 AM

Latest Report: Jun 28, 2016 at 6:53 AM


Visibility: 10 mi

Pressure: 29.96 "Hg (24.82 "Hg at 1635m altitude)

Humidity: 43%

Dew Point: 50 °F

Location of PrescottLocation

Past Weather in Prescott — Graph

°F

Prescott Temperature Yesterday

Maximum temperature yesterday: 92 °F (at 12:53 PM)
Minimum temperature yesterday: 69 °F (at 4:53 AM)
Average temperature yesterday: 80 °F

High & Low Weather Summary for the Past Weeks

 TemperatureHumidityPressure
High103 °F (Jun 20, 1:53 PM)51% (Jun 27, 4:53 AM)30.02 "Hg (Jun 27, 4:53 AM)
Low53 °F (Jun 16, 4:53 AM)4% (Jun 18, 1:53 PM)29.76 "Hg (Jun 24, 6:53 PM)
Average79 °F21%29.88 "Hg
* Reported Jun 13 6:53 AM — Jun 28 6:53 AM, Prescott, Weather by CustomWeather, © 2016

Note: Actual official high and low records may vary slightly from our data, if they occured in-between our weather recording intervals... More about our weather records

Advertising

Prescott Weather History for the Previous 24 Hours

Scroll right to see more
 ConditionsComfort  
Time TempWeatherWind HumidityBarometerVisibility
6:53 AM
Tue, Jun 28
74 °FSunny.6 mph43%29.96 "Hg10 mi
5:53 AM72 °FPartly sunny.6 mph48%29.98 "Hg10 mi
4:53 AM72 °FPassing clouds.No wind46%29.96 "Hg10 mi
3:53 AM71 °FClear.5 mph49%29.93 "Hg10 mi
2:53 AM73 °FPassing clouds.No wind46%29.91 "Hg10 mi
1:53 AM73 °FPassing clouds.No wind44%29.90 "Hg10 mi
12:53 AM73 °FClear.8 mph48%29.91 "Hg10 mi
11:53 PM
Mon, Jun 27
73 °FPassing clouds.7 mph50%29.92 "Hg10 mi
10:53 PM76 °FPassing clouds.No wind36%29.91 "Hg10 mi
9:53 PM75 °FClear.6 mph43%29.93 "Hg10 mi
8:53 PM80 °FPassing clouds.12 mph31%29.93 "Hg10 mi
7:53 PM79 °FLight rain. Mostly cloudy.15 mph36%29.94 "Hg10 mi
6:53 PM81 °FPartly sunny.9 mph30%29.90 "Hg10 mi
5:53 PM76 °FPartly sunny.10 mph43%29.95 "Hg10 mi
4:53 PM78 °FLight rain. Mostly cloudy.12 mph40%29.98 "Hg10 mi
3:53 PM83 °FCloudy.3 mph36%29.91 "Hg10 mi
2:53 PM92 °FPassing clouds.8 mph18%29.87 "Hg10 mi
1:53 PM92 °FSunny.6 mph16%29.88 "Hg10 mi
12:53 PM92 °FSunny.6 mph18%29.91 "Hg10 mi
11:53 AM88 °FSunny.3 mph22%29.95 "Hg10 mi
10:53 AM87 °FSunny.7 mph24%29.96 "Hg10 mi
9:53 AM86 °FSunny.6 mph25%29.96 "Hg10 mi
8:53 AM84 °FSunny.5 mph29%29.97 "Hg10 mi
Weather by CustomWeather, © 2016

See weather overviewHow to use our weather pages